Location: Three Guys Observatory
(38.6418°N, 87.1521°W)
Time: 10:45:20
(UTC-04:00)

ISS - Visible Passes

Search period start: 23 April 2014 00:00
Search period end: 03 May 2014 00:00
Orbit: 413 x 418 km, 51.7° (Epoch: 23 April)

Date Brightness Start Highest point End Pass type
(mag) Time Alt. Az. Time Alt. Az. Time Alt. Az.
23 Apr -2.0 22:15:39 10° WNW 22:18:38 31° SW 22:19:08 29° SSW visible
24 Apr -2.9 21:26:39 10° WNW 21:29:57 58° SW 21:32:31 15° SE visible
25 Apr -0.4 22:16:44 10° WSW 22:17:22 10° SW 22:18:00 10° SW visible
26 Apr -1.0 21:26:10 10° W 21:28:37 19° SW 21:31:04 10° S visible
